User: anonymous   Login
Location: Ash Swamp
(41.5170°N, 74.6157°W)
Time: 22:39:22
(UTC+00:00)
Language:

CBERS-1 - Orbit

View from above orbital plane
View from above orbital plane
View from above satellite
View from above satellite

Ground track
Ground track

The orbit data is extracted from the following two-line orbital elements,

1 25940U 99057A   20269.82937064 -.00000007 +00000-0 +12946-4 0  9992
2 25940 098.6163 214.3746 0006079 057.4356 302.7415 14.35511261097494
Epoch (UTC): 25 September 2020 19:54:17
Eccentricity: 0.0006079
inclination: 98.6163°
perigee height: 769 km
apogee height: 778 km
right ascension of ascending node: 214.3746°
argument of perigee: 57.4356°
revolutions per day: 14.35511261
mean anomaly at epoch: 302.7415°
orbit number at epoch: 9749

The dashed part of the orbit path shows where the satellite is in the earth's shadow,  

DLR